FW6720 Weather Reports


Display with metric or nautical units.
time (UTC)temp
F
wind
direction
speed
MPH
gust
MPH
rain 1hr
in
rain 24hr
in
rain mn
in
humidity
%
barometer
mb
20260904044042 54 0 0.0 0.0 0.00 0.74 0.74 98 1012.1
20260904043538 54 0 0.0 0.0 0.00 0.74 0.74 98 1011.8
20260904043034 54 0 0.0 0.0 0.07 0.74 0.74 98 1012.0
20260904042530 54 0 0.0 0.0 0.07 0.74 0.74 98 1012.1
20260904042025 54 0 0.0 0.0 0.05 0.73 0.73 98 1012.0
20260904041521 54 0 0.0 0.0 0.17 0.73 0.73 98 1012.1
20260904041017 54 0 0.0 0.0 0.12 0.71 0.71 98 1011.8
20260904040516 54 0 0.0 0.0 0.31 0.69 0.69 98 1011.9
20260904040014 54 0 0.0 0.0 0.35 0.69 0.69 98 1012.0
20260904035508 54 0 0.0 0.0 0.05 0.64 0.64 98 1012.1
20260904035007 54 0 0.0 0.0 0.00 0.63 0.63 98 1011.9
20260904034502 54 0 0.0 0.0 0.07 0.63 0.63 98 1011.8
20260904033958 54 0 0.0 0.0 0.07 0.63 0.63 98 1011.7
20260904033454 54 0 0.0 0.0 0.00 0.62 0.62 98 1011.6
20260904032950 54 0 0.0 0.0 0.00 0.62 0.62 98 1011.8
20260904032445 55 0 0.0 0.0 0.00 0.62 0.62 98 1011.5
20260904031944 55 0 0.0 0.0 0.00 0.62 0.62 98 1011.6
20260904031439 55 0 0.0 0.0 0.00 0.62 0.62 97 1011.7
20260904030936 55 0 0.0 0.0 0.00 0.62 0.62 97 1011.4
20260904030431 55 0 0.0 0.0 0.00 0.62 0.62 97 1011.5
20260904025926 55 0 0.0 0.0 0.00 0.62 0.62 97 1011.3
20260904025422 55 0 0.0 0.0 0.00 0.62 0.62 97 1011.3
20260904024922 55 0 0.0 0.0 0.00 0.62 0.62 97 1011.5
20260904024417 55 0 0.0 0.0 0.00 0.62 0.62 97 1011.5
20260904023913 55 0 0.0 0.0 0.00 0.62 0.62 97 1011.3
20260904023409 55 359 0.0 0.0 0.00 0.62 0.62 96 1011.3
20260904022908 55 359 0.0 0.0 0.00 0.62 0.62 96 1011.2
20260904022405 56 359 0.0 0.0 0.00 0.62 0.62 96 1011.1
20260904021901 56 359 0.0 0.0 0.00 0.62 0.62 96 1011.3
20260904021356 56 359 0.0 0.0 0.00 0.62 0.62 96 1011.4
20260904020852 56 359 0.0 0.0 0.00 0.62 0.62 95 1011.3
20260904020347 56 359 0.0 0.0 0.00 0.62 0.62 95 1011.4
20260904015845 56 359 0.0 0.0 0.00 0.62 0.62 95 1011.3
20260904015341 56 359 0.0 0.0 0.00 0.62 0.62 95 1011.3
20260904014840 56 359 0.0 0.0 0.00 0.62 0.62 95 1011.3
20260904014335 56 359 0.0 0.0 0.00 0.62 0.62 95 1011.1
20260904013831 56 359 0.0 0.0 0.00 0.62 0.62 95 1011.2
20260904013327 57 359 0.0 0.0 0.00 0.62 0.62 96 1011.1
20260904012823 57 359 0.0 0.0 0.00 0.62 0.62 96 1011.1
20260904012323 57 359 0.0 0.0 0.00 0.62 0.62 96 1011.2
20260904011822 57 359 0.0 0.0 0.00 0.62 0.62 96 1011.0
20260904011317 57 359 0.0 0.0 0.00 0.62 0.62 96 1011.1
20260904010811 57 359 0.0 0.0 0.00 0.62 0.62 95 1011.2
20260904010308 57 359 0.0 0.0 0.00 0.62 0.62 95 1011.1
20260904005803 57 359 0.0 0.0 0.00 0.62 0.62 95 1011.1
20260904005259 57 359 0.0 0.0 0.05 0.62 0.62 94 1011.3
20260904004753 57 359 0.0 0.0 0.05 0.62 0.62 94 1011.0
20260904004249 56 359 0.0 0.0 0.00 0.61 0.61 93 1011.1
20260904003744 57 359 0.0 0.0 0.00 0.61 0.61 94 1011.2
20260904003240 56 359 0.0 0.0 0.00 0.61 0.61 93 1011.1
20260904002735 57 359 0.0 0.0 0.00 0.61 0.61 94 1011.1
20260904002233 57 359 0.0 0.0 0.00 0.61 0.61 94 1011.0
20260904001731 57 359 0.0 0.0 0.00 0.61 0.61 94 1011.1
20260904001226 57 359 0.0 0.0 0.00 0.61 0.61 94 1011.1
20260904000721 58 359 0.0 0.0 0.00 0.61 0.61 94 1011.0
20260904000218 57 359 0.0 0.0 0.00 0.61 0.61 93 1011.0
20260903235715 58 359 0.0 0.0 0.00 0.61 0.61 94 1011.0
20260903235212 57 358 0.0 0.0 0.00 0.61 0.61 94 1011.0
20260903234706 57 358 0.0 0.0 0.00 0.61 0.61 93 1011.0
20260903234203 57 358 0.0 0.0 0.00 0.61 0.61 93 1010.7
20260903233658 57 358 0.0 0.0 0.00 0.61 0.61 93 1011.1
20260903233154 57 358 0.0 0.0 0.00 0.61 0.61 93 1011.1
20260903232647 57 358 0.0 0.0 0.00 0.61 0.61 93 1011.1
20260903232143 57 357 0.0 0.0 0.00 0.61 0.61 92 1010.9
20260903231642 58 358 0.0 0.0 0.00 0.61 0.61 89 1011.2
20260903231137 58 51 0.0 0.0 0.00 0.61 0.61 91 1011.2
20260903230633 58 4 0.0 1.0 0.00 0.61 0.61 90 1011.1
20260903230132 58 6 0.0 0.0 0.00 0.61 0.61 92 1011.0
20260903225629 57 5 0.0 0.0 0.00 0.61 0.61 93 1011.0
20260903225126 58 6 0.0 0.0 0.00 0.61 0.61 95 1011.3
20260903224621 58 5 0.0 0.0 0.00 0.61 0.61 96 1011.3
20260903224118 58 5 0.0 0.0 0.00 0.61 0.61 96 1011.4
20260903223613 57 5 0.0 0.0 0.00 0.61 0.61 96 1011.4
20260903223110 57 6 0.0 0.0 0.00 0.61 0.61 96 1011.4
20260903222606 57 5 0.0 0.0 0.00 0.61 0.61 95 1011.3
20260903222105 57 6 0.0 0.0 0.00 0.61 0.61 96 1011.2
20260903221601 57 5 0.0 0.0 0.00 0.61 0.61 96 1011.2
20260903221058 57 6 0.0 0.0 0.00 0.61 0.61 96 1011.3
20260903220557 57 6 0.0 0.0 0.00 0.61 0.61 96 1011.2
20260903220057 56 6 0.0 0.0 0.00 0.61 0.61 97 1011.3
20260903215556 56 5 0.0 0.0 0.00 0.61 0.61 96 1011.1
20260903215055 56 6 0.0 0.0 0.00 0.61 0.61 95 1011.2
20260903214550 57 6 0.0 0.0 0.00 0.61 0.61 95 1011.4
20260903214045 56 5 0.0 0.0 0.07 0.61 0.61 96 1011.3
20260903213540 57 5 0.0 0.0 0.07 0.61 0.61 95 1011.4
20260903213036 57 4 0.0 0.0 0.00 0.60 0.60 96 1011.4
20260903212532 57 4 0.0 0.0 0.00 0.60 0.60 96 1011.3
20260903212027 57 5 0.0 0.0 0.00 0.60 0.60 96 1011.3
20260903211522 57 4 0.0 0.0 0.00 0.60 0.60 96 1011.3
20260903211018 57 4 0.0 0.0 0.00 0.60 0.60 96 1011.2
20260903210518 57 43 0.0 0.0 0.00 0.60 0.60 96 1011.2
20260903210009 57 44 0.0 0.0 0.00 0.60 0.60 96 1011.1
20260903205508 57 43 0.0 0.0 0.00 0.60 0.60 96 1011.1
20260903205002 57 44 0.0 0.0 0.00 0.60 0.60 96 1011.0
20260903204459 57 45 0.0 0.0 0.00 0.60 0.60 97 1011.1
20260903203954 56 46 0.0 0.0 0.00 0.60 0.60 97 1011.2
20260903203449 56 40 0.0 0.0 0.00 0.60 0.60 97 1011.0
20260903202948 56 64 0.0 0.0 0.00 0.60 0.60 98 1011.1
20260903202444 55 64 0.0 0.0 0.00 0.60 0.60 98 1011.2
20260903201939 55 65 0.0 0.0 0.00 0.60 0.60 98 1011.3
20260903201434 55 65 0.0 0.0 0.00 0.60 0.60 98 1011.3
20260903200933 54 65 0.0 0.0 0.00 0.60 0.60 98 1011.2
20260903200428 54 64 0.0 0.0 0.12 0.60 0.60 98 1011.4
20260903195923 54 64 0.0 0.0 0.35 0.60 0.60 98 1011.1
20260903195420 55 64 0.0 0.0 0.26 0.57 0.57 98 1011.3
20260903194914 55 64 0.0 0.0 0.05 0.53 0.53 98 1011.6
20260903194410 55 64 0.0 0.0 0.07 0.52 0.52 98 1011.4
20260903193905 55 64 0.0 0.0 0.12 0.52 0.52 98 1011.4
20260903193401 55 64 0.0 0.0 0.05 0.51 0.51 98 1011.3
20260903192856 55 64 0.0 0.0 0.00 0.50 0.50 98 1011.4
20260903192352 55 64 0.0 0.0 0.00 0.50 0.50 98 1011.5
20260903191849 55 64 0.0 0.0 0.00 0.50 0.50 97 1011.5
20260903191344 54 64 0.0 0.0 0.00 0.50 0.50 97 1011.5
20260903190844 54 64 0.0 0.0 0.00 0.50 0.50 98 1011.6
20260903190338 54 64 0.0 0.0 0.00 0.50 0.50 98 1011.5
20260903185837 54 64 0.0 0.0 0.00 0.50 0.50 98 1011.6
20260903185333 54 65 0.0 0.0 0.07 0.50 0.50 98 1011.7
20260903184829 53 65 0.0 0.0 0.12 0.50 0.50 98 1011.4
20260903184326 53 64 0.0 0.0 0.12 0.49 0.49 97 1011.7
20260903183826 53 64 0.0 0.0 0.12 0.48 0.48 98 1011.9
20260903183321 53 64 0.0 0.0 0.05 0.47 0.47 98 1012.0
20260903182819 53 64 0.0 0.0 0.00 0.46 0.46 98 1011.7
20260903182314 54 64 0.0 0.0 0.00 0.46 0.46 98 1011.6
20260903181814 54 64 0.0 0.0 0.07 0.46 0.46 98 1011.5
20260903181309 54 64 0.0 0.0 0.07 0.46 0.46 98 1011.6
20260903180809 54 64 0.0 0.0 0.05 0.45 0.45 98 1011.6
20260903180308 54 64 0.0 0.0 0.12 0.45 0.45 98 1011.5
20260903175808 54 64 0.0 0.0 0.14 0.44 0.44 98 1011.7
20260903175307 54 64 0.0 0.0 0.07 0.43 0.43 98 1011.7
20260903174801 55 64 0.0 0.0 0.00 0.42 0.42 98 1011.8
20260903174256 55 64 0.0 0.0 0.05 0.42 0.42 98 1011.5
20260903173751 55 64 0.0 0.0 0.00 0.41 0.41 98 1011.7
20260903173247 55 64 0.0 0.0 0.07 0.41 0.41 98 1011.5
20260903172742 54 64 0.0 0.0 0.07 0.41 0.41 98 1011.4
20260903172236 55 64 0.0 0.0 0.00 0.40 0.40 98 1011.3
20260903171732 55 64 0.0 0.0 0.00 0.40 0.40 98 1011.3
20260903171228 55 64 0.0 0.0 0.00 0.40 0.40 98 1011.4
20260903170726 55 64 0.0 0.0 0.00 0.40 0.40 99 1011.3
20260903170222 55 65 0.0 0.0 0.00 0.40 0.40 99 1011.2
20260903165720 55 25 0.0 0.0 0.00 0.40 0.40 99 1011.3
20260903165215 55 25 0.0 0.0 0.00 0.40 0.40 99 1011.0
20260903164709 55 25 0.0 0.0 0.00 0.40 0.40 99 1011.1
20260903164206 55 24 0.0 0.0 0.00 0.40 0.40 99 1011.4
20260903163705 55 24 0.0 0.0 0.00 0.40 0.40 99 1011.3
20260903163201 55 24 0.0 0.0 0.00 0.40 0.40 99 1011.1
20260903162657 55 24 0.0 0.0 0.00 0.40 0.40 99 1011.3
20260903162153 54 24 0.0 0.0 0.00 0.40 0.40 99 1010.9
20260903161649 54 24 0.0 0.0 0.00 0.40 0.40 99 1011.1
20260903161143 54 24 0.0 0.0 0.00 0.40 0.40 99 1011.1
20260903160639 54 52 0.0 0.0 0.00 0.40 0.40 99 1011.3
20260903160133 54 52 0.0 0.0 0.00 0.40 0.40 99 1011.1
20260903155632 54 52 0.0 0.0 0.00 0.40 0.40 99 1011.1
20260903155127 54 52 0.0 0.0 0.00 0.40 0.40 99 1011.3
20260903154623 54 52 0.0 0.0 0.05 0.40 0.40 99 1011.0
20260903154119 54 52 0.0 0.0 0.05 0.40 0.40 99 1011.0
20260903153614 54 53 0.0 0.0 0.07 0.39 0.39 99 1011.0
20260903153110 54 52 0.0 0.0 0.07 0.39 0.39 99 1011.1
20260903152606 54 52 0.0 0.0 0.00 0.38 0.38 99 1011.2
20260903152102 54 52 0.0 0.0 0.00 0.38 0.38 99 1011.1
20260903151602 53 52 0.0 0.0 0.05 0.38 0.38 99 1011.0
20260903151057 53 52 0.0 0.0 0.12 0.38 0.38 99 1011.0
20260903150556 53 52 0.0 0.0 0.07 0.37 0.37 99 1011.0
20260903150052 53 53 0.0 0.0 0.00 0.36 0.36 99 1010.9
20260903145551 53 53 0.0 0.0 0.00 0.36 0.36 99 1011.0
20260903145046 53 52 0.0 0.0 0.05 0.36 0.36 99 1010.9
20260903144545 53 52 0.0 0.0 0.12 0.36 0.36 99 1010.6
20260903144042 53 53 0.0 0.0 0.05 0.34 0.34 99 1010.9
20260903143538 53 52 0.0 0.0 0.12 0.34 0.34 99 1010.8
20260903143033 53 52 0.0 0.0 0.19 0.33 0.33 99 1010.8
20260903142528 53 52 0.0 0.0 0.24 0.32 0.32 99 1011.1
20260903142025 53 53 0.0 0.0 0.05 0.29 0.29 99 1010.9
20260903141520 53 53 0.0 0.0 0.00 0.28 0.28 99 1011.0
20260903141015 53 53 0.0 0.0 0.00 0.28 0.28 99 1010.9
20260903140511 53 53 0.0 0.0 0.07 0.28 0.28 99 1010.8
20260903140006 53 53 0.0 0.0 0.00 0.27 0.27 99 1010.8
20260903135502 53 53 0.0 0.0 0.00 0.27 0.27 99 1010.6
20260903134956 53 53 0.0 0.0 0.00 0.27 0.27 99 1010.8
20260903134455 53 54 0.0 0.0 0.00 0.27 0.27 99 1010.7
20260903133952 53 54 0.0 0.0 0.00 0.27 0.27 99 1010.7
20260903133449 53 54 0.0 0.0 0.00 0.27 0.27 99 1010.4
20260903132944 53 54 0.0 0.0 0.00 0.27 0.27 99 1010.7
20260903132440 53 54 0.0 0.0 0.00 0.27 0.27 99 1010.6
20260903131939 53 54 0.0 0.0 0.12 0.27 0.27 99 1010.7
20260903131435 53 54 0.0 0.0 0.17 0.27 0.27 99 1010.8
20260903130933 53 54 0.0 0.0 0.12 0.25 0.25 99 1010.6
20260903130429 53 54 0.0 0.0 0.07 0.24 0.24 99 1010.5
20260903125928 53 54 0.0 0.0 0.00 0.23 0.23 99 1010.4
20260903125427 53 54 0.0 0.0 0.00 0.23 0.23 99 1010.5
20260903124927 53 54 0.0 0.0 0.00 0.23 0.23 99 1010.3
20260903124422 53 54 0.0 0.0 0.00 0.23 0.23 99 1010.4
20260903123921 53 54 0.0 0.0 0.00 0.23 0.23 99 1010.5
20260903123416 53 54 0.0 0.0 0.05 0.23 0.23 99 1010.2
20260903122914 53 54 0.0 0.0 0.05 0.23 0.23 99 1010.4
20260903122409 53 54 0.0 0.0 0.00 0.22 0.22 99 1010.7
20260903121908 53 54 0.0 0.0 0.00 0.22 0.22 99 1010.6
20260903121403 53 54 0.0 0.0 0.00 0.22 0.22 99 1010.5
20260903120900 53 54 0.0 0.0 0.12 0.22 0.22 99 1010.5
20260903120358 53 54 0.0 0.0 0.12 0.22 0.22 99 1010.7
20260903115857 53 54 0.0 0.0 0.00 0.20 0.20 99 1010.6
20260903115351 53 54 0.0 0.0 0.00 0.20 0.20 99 1010.6
20260903114851 53 54 0.0 0.0 0.07 0.20 0.20 99 1010.4
20260903114348 53 54 0.0 0.0 0.07 0.20 0.20 99 1010.5
20260903113843 53 54 0.0 0.0 0.00 0.19 0.19 99 1010.7
20260903113338 53 54 0.0 0.0 0.00 0.19 0.19 99 1010.8
20260903112834 53 54 0.0 0.0 0.05 0.19 0.19 99 1010.6
20260903112330 53 54 0.0 0.0 0.05 0.19 0.19 99 1010.7
20260903111829 53 54 0.0 0.0 0.07 0.18 0.18 99 1010.7
20260903111329 53 54 0.0 0.0 0.07 0.18 0.18 98 1010.7
20260903110825 53 54 0.0 0.0 0.07 0.17 0.17 98 1010.7
20260903110320 53 54 0.0 0.0 0.12 0.17 0.17 98 1010.8
20260903105815 53 54 0.0 0.0 0.17 0.16 0.16 98 1010.6
20260903105309 53 54 0.0 0.0 0.19 0.15 0.15 98 1010.7
20260903104809 53 54 0.0 0.0 0.12 0.13 0.13 98 1010.8
20260903104304 53 54 0.0 0.0 0.12 0.12 0.12 98 1010.6
20260903103801 53 54 0.0 0.0 0.12 0.11 0.11 98 1010.5
20260903103256 53 54 0.0 0.0 0.05 0.10 0.10 98 1010.5
20260903102752 53 54 0.0 0.0 0.07 0.09 0.09 98 1010.5
20260903102246 53 54 0.0 0.0 0.07 0.09 0.09 98 1010.6
20260903101744 53 54 0.0 0.0 0.05 0.08 0.08 98 1010.6
20260903101240 53 54 0.0 0.0 0.12 0.08 0.08 98 1010.7
20260903100735 53 54 0.0 0.0 0.07 0.07 0.07 98 1010.6
20260903100229 53 54 0.0 0.0 0.07 0.06 0.06 98 1010.7
20260903095727 53 54 0.0 0.0 0.00 0.05 0.05 98 1010.3
20260903095222 54 54 0.0 0.0 0.00 0.05 0.05 98 1010.5
20260903094717 54 54 0.0 0.0 0.00 0.05 0.05 98 1010.3
20260903094212 54 54 0.0 0.0 0.00 0.05 0.05 98 1010.5
20260903093708 54 54 0.0 0.0 0.00 0.05 0.05 98 1010.4
20260903093203 53 54 0.0 0.0 0.00 0.05 0.05 98 1010.3
20260903092702 53 54 0.0 0.0 0.00 0.05 0.05 98 1010.5
20260903092157 53 54 0.0 0.0 0.00 0.05 0.05 98 1010.6
20260903091656 53 54 0.0 0.0 0.00 0.05 0.05 98 1010.6
20260903091150 53 54 0.0 0.0 0.00 0.05 0.05 98 1010.7
20260903090646 53 54 0.0 0.0 0.00 0.05 0.05 98 1010.5
20260903090144 53 54 0.0 0.0 0.00 0.05 0.05 98 1010.6
20260903085643 53 54 0.0 0.0 0.00 0.05 0.05 98 1010.4
20260903085140 53 54 0.0 0.0 0.00 0.05 0.05 98 1010.8
20260903084636 53 54 0.0 0.0 0.05 0.05 0.05 98 1010.6
20260903084131 53 54 0.0 0.0 0.05 0.05 0.05 98 1010.9
20260903083627 53 54 0.0 0.0 0.12 0.04 0.04 98 1010.6
20260903083121 53 54 0.0 0.0 0.17 0.03 0.03 98 1010.7
20260903082616 52 54 0.0 0.0 0.05 0.01 0.01 98 1010.7
20260903082112 53 54 0.0 0.0 0.00 0.00 0.00 98 1010.7
20260903081607 52 54 0.0 0.0 0.00 0.00 0.00 98 1010.7
20260903081103 53 54 0.0 0.0 0.00 0.00 0.00 98 1010.8
20260903080558 52 54 0.0 0.0 0.00 0.00 0.00 98 1010.7
20260903080055 52 54 0.0 0.0 0.00 0.00 0.00 98 1010.8
20260903075549 53 54 0.0 0.0 0.00 0.00 0.00 98 1010.8
20260903075045 53 54 0.0 0.0 0.00 0.00 0.00 98 1010.9
20260903074544 53 54 0.0 0.0 0.00 0.00 0.00 98 1010.8
20260903074038 53 54 0.0 0.0 0.00 0.00 0.00 98 1010.8
20260903073534 53 54 0.0 0.0 0.00 0.00 0.00 98 1010.9
20260903073030 53 54 0.0 0.0 0.00 0.00 0.00 98 1010.7
20260903072526 53 54 0.0 0.0 0.00 0.00 0.00 98 1010.8
20260903072022 53 54 0.0 0.0 0.00 0.00 0.00 98 1010.9
20260903071518 53 54 0.0 0.0 0.00 0.00 0.00 98 1010.7
20260903071018 53 54 0.0 0.0 0.00 0.00 0.00 98 1010.9
20260903070512 53 54 0.0 0.0 0.00 0.00 0.00 98 1010.8
20260903070008 53 54 0.0 0.0 0.00 0.49 0.49 98 1010.9
20260903065502 53 54 0.0 0.0 0.00 0.49 0.49 98 1010.8
20260903065001 53 54 0.0 0.0 0.00 0.49 0.49 98 1010.8
20260903064456 53 54 0.0 0.0 0.00 0.49 0.49 98 1010.9
20260903063952 53 54 0.0 0.0 0.00 0.49 0.49 98 1010.7
20260903063447 53 54 0.0 0.0 0.00 0.49 0.49 98 1010.9
20260903062942 53 54 0.0 0.0 0.00 0.49 0.49 98 1010.9
20260903062437 53 54 0.0 0.0 0.00 0.49 0.49 98 1010.7
20260903061933 53 54 0.0 0.0 0.00 0.49 0.49 98 1010.9
20260903061432 53 54 0.0 0.0 0.00 0.49 0.49 98 1010.8
20260903060927 53 54 0.0 0.0 0.00 0.49 0.49 98 1011.0
20260903060422 53 54 0.0 0.0 0.00 0.49 0.49 98 1010.8
20260903055920 53 54 0.0 0.0 0.00 0.49 0.49 98 1011.0
20260903055419 53 54 0.0 0.0 0.00 0.49 0.49 98 1010.9
20260903054914 53 54 0.0 0.0 0.00 0.49 0.49 98 1011.0
20260903054413 53 54 0.0 0.0 0.00 0.49 0.49 97 1010.9
20260903053910 53 54 0.0 0.0 0.00 0.49 0.49 98 1010.9
20260903053404 53 54 0.0 0.0 0.00 0.49 0.49 97 1011.0
20260903052900 53 54 0.0 0.0 0.00 0.49 0.49 97 1011.2
20260903052356 53 54 0.0 0.0 0.00 0.49 0.49 97 1010.9
20260903051852 53 54 0.0 0.0 0.00 0.49 0.49 97 1010.9
20260903051347 53 54 0.0 0.0 0.00 0.49 0.49 97 1011.2
20260903050842 53 54 0.0 0.0 0.00 0.49 0.49 97 1011.0
20260903050341 53 54 0.0 0.0 0.00 0.49 0.49 97 1011.1
20260903045836 53 54 0.0 0.0 0.00 0.49 0.49 97 1011.1
20260903045332 53 54 0.0 0.0 0.00 0.49 0.49 97 1011.0
20260903044829 53 54 0.0 0.0 0.00 0.49 0.49 97 1011.1
20260903044329 53 54 0.0 0.0 0.00 0.49 0.49 97 1011.1